White Mountain, AK

9:29 AM AKST on December 12, 2017 (GMT -0900)
White Mountain

Weather History for PAWM - October, 2012

Change the Weather History Date:

Monday, October 29, 2012

  Actual Average (PAOM) Record (PAOM)
Temperature  
Mean Temperature 24 °F -  
Max Temperature 30 °F 27 °F 44 °F (2002)
Min Temperature 19 °F 15 °F -4 °F (1929)
Degree Days  
Heating Degree Days 42    
Moisture  
Dew Point 20 °F    
Average Humidity 83    
Maximum Humidity 96    
Minimum Humidity 72    
Precipitation  
Precipitation 0.00 in - - ()
Sea Level Pressure  
Sea Level Pressure 30.31 in    
Wind  
Wind Speed 13 mph ()    
Max Wind Speed 24 mph    
Max Gust Speed 31 mph    
Visibility 6.4 miles    
Events Snow    
Averages and records for this station are not official NWS values.
T = Trace of Precipitation, MM = Missing Value Source: Averaged Metar Reports

Daily Weather History Graph

Daily Weather History Graph

Search for Another Location

Airport or City:

Trip Planner

Search our weather history database for the weather conditions in past years. The results will help you decide how hot, cold, wet, or windy it might be!

Date:

Astronomy

Oct. 29, 2012 Rise Set
Actual Time 10:32 AM AKDT 6:40 PM AKDT
Civil Twilight 9:38 AM AKDT 7:34 PM AKDT
Nautical Twilight 8:41 AM AKDT 8:32 PM AKDT
Astronomical Twilight 7:44 AM AKDT 9:28 PM AKDT
Moon 6:16 PM AKDT (10/29) 10:53 AM AKDT (10/29)
Length of Visible Light 9h 55m
Length of Day
8h 07m
Full, 100% of the Moon is Illuminated
Oct 29
Full
Nov 6
Last Quarter
Nov 13
New
Nov 20
First Quarter
Nov 28
Full

Hourly Weather History & Observations

Time (AKDT) Temp. Windchill Dew Point Humidity Pressure Visibility Wind Dir Wind Speed Gust Speed Precip Events Conditions
12:58 AM 28.0 °F 20.0 °F 25.0 °F 88% 30.20 in 10.0 mi North 8.1 mph - N/A   Overcast
2:58 AM 28.0 °F 19.3 °F 26.1 °F 92% 30.22 in 8.0 mi NNW 9.2 mph - 0.00 in Snow Light Snow
4:58 AM 28.9 °F 17.3 °F 23.0 °F 78% 30.24 in 10.0 mi North 16.1 mph 26.5 mph 0.00 in   Overcast
5:49 AM 28.4 °F 17.0 °F 21.2 °F 74% 30.22 in 9.0 mi North 15.0 mph 23.0 mph N/A   Overcast
5:54 AM 28.4 °F 17.5 °F 21.2 °F 74% 30.22 in 9.0 mi North 13.8 mph 21.9 mph N/A   Overcast
5:58 AM 28.0 °F 17.0 °F 21.0 °F 75% 30.26 in 9.0 mi North 13.8 mph 21.9 mph N/A   Overcast
6:58 AM 26.1 °F 14.0 °F 19.0 °F 75% 30.27 in 9.0 mi North 15.0 mph 24.2 mph N/A   Mostly Cloudy
7:58 AM 25.0 °F 12.6 °F 19.0 °F 78% 30.28 in 9.0 mi NNW 15.0 mph - 0.00 in Snow Light Snow
8:58 AM 24.1 °F 13.7 °F 18.0 °F 77% 30.29 in 9.0 mi NW 10.4 mph - 0.00 in   Mostly Cloudy
9:58 AM 24.1 °F 11.0 °F 19.9 °F 84% 30.30 in 6.0 mi NNW 16.1 mph 20.7 mph 0.00 in Snow Light Snow
10:08 AM 24.8 °F 11.1 °F 21.2 °F 86% 30.27 in 2.5 mi NNW 18.4 mph - 0.00 in Snow Light Snow
10:19 AM 24.8 °F 13.4 °F 21.2 °F 86% 30.28 in 1.8 mi NNW 12.7 mph - 0.00 in Snow Light Snow
10:39 AM 24.8 °F 11.9 °F 21.2 °F 86% 30.27 in 2.5 mi NNW 16.1 mph - 0.00 in Snow Light Snow
10:58 AM 23.0 °F 11.1 °F 21.9 °F 96% 30.31 in 7.0 mi NNW 12.7 mph 17.3 mph 0.00 in Snow Light Snow
11:02 AM 23.0 °F 13.1 °F 21.2 °F 93% 30.28 in 7.0 mi NNW 9.2 mph - 0.00 in Snow Light Snow
11:58 AM 23.0 °F 10.1 °F 18.0 °F 81% 30.33 in 7.0 mi NNW 15.0 mph 21.9 mph 0.00 in Snow Light Snow
12:20 PM 23.0 °F 7.2 °F 19.4 °F 86% 30.29 in 4.0 mi NNW 23.0 mph 27.6 mph 0.00 in Snow Light Snow
12:40 PM 24.8 °F 11.9 °F 19.4 °F 80% 30.30 in 7.0 mi NNW 16.1 mph 20.7 mph 0.00 in Snow Light Snow
12:58 PM 24.1 °F 11.0 °F 18.0 °F 77% 30.33 in 8.0 mi NNW 16.1 mph - 0.00 in   Scattered Clouds
1:58 PM 25.0 °F 11.7 °F 17.1 °F 72% 30.34 in 9.0 mi NW 17.3 mph 26.5 mph N/A   Clear
2:58 PM 24.1 °F 9.8 °F 18.0 °F 77% 30.34 in 8.0 mi NW 19.6 mph 28.8 mph N/A   Clear
3:17 PM 24.8 °F 11.1 °F 19.4 °F 80% 30.31 in 4.0 mi NNW 18.4 mph 26.5 mph 0.00 in Snow Light Snow
3:24 PM 24.8 °F 10.0 °F 19.4 °F 80% 30.31 in 2.5 mi NW 21.9 mph 26.5 mph 0.00 in Snow Light Snow
3:33 PM 24.8 °F 9.3 °F 19.4 °F 80% 30.31 in 4.0 mi NNW 24.2 mph 28.8 mph 0.00 in Snow Light Snow
3:58 PM 23.0 °F 8.3 °F 19.0 °F 85% 30.35 in 3.0 mi NW 19.6 mph 31.1 mph 0.00 in Snow Light Snow
4:03 PM 23.0 °F 8.3 °F 19.4 °F 86% 30.31 in 2.5 mi NW 19.6 mph 25.3 mph 0.00 in Snow Light Snow
4:20 PM 23.0 °F 9.6 °F 19.4 °F 86% 30.31 in 3.0 mi NNW 16.1 mph - 0.00 in Snow Light Snow
4:34 PM 23.0 °F 8.0 °F 19.4 °F 86% 30.31 in 7.0 mi NNW 20.7 mph 26.5 mph 0.00 in Snow Light Snow
4:58 PM 23.0 °F 8.3 °F 18.0 °F 81% 30.35 in 9.0 mi NW 19.6 mph - 0.00 in   Clear
5:58 PM 21.9 °F 6.5 °F 16.0 °F 78% 30.36 in 8.0 mi NNW 20.7 mph 28.8 mph N/A   Clear
6:58 PM 19.9 °F 5.7 °F 15.1 °F 81% 30.38 in 8.0 mi NNW 16.1 mph - N/A   Clear
7:58 PM 19.0 °F 8.2 °F 15.1 °F 85% 30.39 in 9.0 mi NW 9.2 mph - 0.00 in   Scattered Clouds
8:58 PM 19.0 °F 5.6 °F 16.0 °F 88% 30.39 in 8.0 mi NNW 13.8 mph - 0.00 in   Mostly Cloudy
10:58 PM 21.0 °F 7.6 °F 18.0 °F 88% 30.41 in 7.0 mi NW 15.0 mph - 0.00 in Snow Light Snow
11:37 PM 21.2 °F 7.3 °F 19.4 °F 93% 30.37 in 3.0 mi NW 16.1 mph - 0.00 in Snow Light Snow
11:47 PM 21.2 °F 7.3 °F 19.4 °F 93% 30.37 in 3.0 mi NW 16.1 mph - 0.00 in Snow Light Snow
11:58 PM 21.9 °F 8.7 °F 19.9 °F 92% 30.41 in 4.0 mi NW 15.0 mph - 0.00 in Snow Light Snow